This is the latest recevied weather packets stored in our database for station/object F4JUT-10. If no packets are shown the sender has not sent any weather packets the latest 10 day(s).
| Time | Temp. | Humidity | Pressure | Rain* | Wind** | Luminosity | Snow |
|---|---|---|---|---|---|---|---|
| 1777311166 | 22.78° C | 27% | 1018.9 hPa | - | - | - | - |
| 1777310266 | 22.78° C | 25% | 1019 hPa | - | - | - | - |
| 1777309366 | 23.89° C | 25% | 1019 hPa | - | - | - | - |
| 1777308466 | 24.44° C | 23% | 1019.2 hPa | - | - | - | - |
| 1777307566 | 25.56° C | 22% | 1019.3 hPa | - | - | - | - |
| 1777306666 | 26.67° C | 20% | 1019.3 hPa | - | - | - | - |
| 1777305765 | 27.78° C | 20% | 1019.4 hPa | - | - | - | - |
| 1777304865 | 28.89° C | 19% | 1019.5 hPa | - | - | - | - |
| 1777303965 | 30° C | 18% | 1019.6 hPa | - | - | - | - |
| 1777303065 | 30.56° C | 17% | 1019.6 hPa | - | - | - | - |
| 1777302165 | 31.67° C | 17% | 1019.8 hPa | - | - | - | - |
| 1777301265 | 32.78° C | 15% | 1019.9 hPa | - | - | - | - |
| 1777300365 | 33.33° C | 15% | 1020 hPa | - | - | - | - |
| 1777299465 | 34.44° C | 16% | 1020.2 hPa | - | - | - | - |
| 1777298565 | 34.44° C | 14% | 1020.3 hPa | - | - | - | - |
| 1777297665 | 33.89° C | 14% | 1020.6 hPa | - | - | - | - |
| 1777296765 | 35° C | 15% | 1020.7 hPa | - | - | - | - |
| 1777295865 | 35° C | 14% | 1020.8 hPa | - | - | - | - |
| 1777294964 | 35.56° C | 14% | 1020.9 hPa | - | - | - | - |
| 1777294064 | 35.56° C | 15% | 1021.1 hPa | - | - | - | - |
| 1777293164 | 35.56° C | 14% | 1021.2 hPa | - | - | - | - |
| 1777292264 | 35° C | 14% | 1021.4 hPa | - | - | - | - |
| 1777291364 | 35° C | 14% | 1021.6 hPa | - | - | - | - |
| 1777290464 | 35.56° C | 14% | 1021.6 hPa | - | - | - | - |
| 1777289564 | 35.56° C | 14% | 1021.8 hPa | - | - | - | - |
* Rain since midnight (hover to see other rain measurements)
** Current wind speed in m/s (hover to see current wind gust speed)